SCP
0 0 0 0 0 0 -0 -0 -0 -0 -0 -0 -0 -0 -0 -0 -0 -0 0 0 0 0 0 0 0 0 0 0 0 0 0 0 0 0 0 0 0 0 0 0 0 0 0 0 0 0 0 0 0
0 0 0 0 0 0 0 -0 -0 -0 -0 -0 -0 -0 -0 -0 -0 -0 0 0 0 0 0 0 0 0 0 0 0 0 0 0 0 0 0 0 0 0 0 0 0 0 0 0 0 0 0 0 0
0 0 0 0 0 0 0 -0 -0 -0 -0 -0 -0 -0 -0 -0 -0 -0 0 0 0 0 0 0 0 0 0 0 0 0 0 0 0 0 0 0 0 0 0 0 0 0 0 0 0 0 0 0 0
0 0 -0 0 0 0 0 -0 -0 -0 -0 -0 -0 -0 -0 -0 -0 0 0 0 0 0 0 0 0 0 0 0 0 0 0 0 0 0 0 0 0 0 0 0 0 0 0 0 0 0 0 0 0
0 -0 0 0 0 0 -0 -0 -0 -0 -0 -0 -0 -0 -0 -0 -0 0 0 0 0 0 0 0 0 0 0 0 0 0 0 0 0 0 0 0 0 0 0 0 0 0 0 0 0 0 0 0 0
0 -0 0 0 0 0 0 -0 -0 -0 -0 -0 -0 -0 -0 -0 -0 0 0 0 0 0 0 0 0 0 0 0 0 0 0 0 0 0 0 0 0 0 0 0 0 0 0 0 0 0 0 0 0
0 -0 0 0 0 0 0 -0 -0 -0 -0 -0 -0 -0 0 0 0 0 0 0 0 0 0 0 0 0 0 0 0 0 0 0 0 0 0 0 0 0 0 0 0 0 0 0 0 0 0 0 0
0 0 0 0 0 0 0 0 -0 -0 -0 -0 -0 0 0 0 0 0 0 0 -0 -0 0 0 0 0 0 0 0 0 0 0 0 0 0 0 0 0 0 0 0 0 0 0 0 0 0 0 0
0 0 0 0 0 0 0 0 0 0 0 0 0 0 0 0 0 0 0 0 -0 -0 -0 -0 0 0 0 0 0 0 0 0 0 1 1 0 0 0 0 1 1 1 0 0 0 0 0 0 0
0 0 0 0 0 0 0 0 0 0 0 0 0 0 0 0 0 0 0 0 0 -0 -0 -0 -0 0 0 0 0 0 0 1 1 1 1 1 0 0 0 1 1 1 1 0 0 0 0 0 0
0 0 0 0 0 0 0 0 0 0 0 0 0 0 1 1 1 0 0 0 0 -0 -0 -0 -0 0 0 0 0 0 0 1 1 1 1 1 1 1 1 1 1 1 1 1 1 1 0 0 0
0 0 0 0 0 0 0 0 0 0 0 0 0 0 1 1 1 0 0 0 0 -0 -0 -0 0 0 0 0 0 0 0 1 1 1 1 1 1 1 1 1 1 1 1 1 1 1 1 1 1
0 0 0 0 0 0 0 0 0 0 0 0 0 1 1 1 1 1 0 0 0 -0 -0 0 0 0 0 0 1 1 1 1 1 1 1 1 1 1 1 1 1 1 1 1 1 1 1 1 1
0 0 0 0 0 0 0 0 0 0 0 0 0 1 1 1 1 1 1 0 0 0 0 0 0 0 1 1 1 1 1 1 1 1 1 1 1 1 1 1 1 1 1 1 1 1 1 1 1
0 0 0 0 0 0 0 0 0 0 0 0 0 1 1 1 1 1 1 1 0 0 0 0 0 1 1 1 1 1 1 1 1 1 1 1 1 1 1 1 1 1 1 1 1 2 2 2 2
0 0 0 0 0 0 0 0 0 0 0 1 1 1 1 1 1 1 1 1 1 1 1 1 1 1 1 1 1 1 1 1 1 1 1 1 1 1 1 1 1 1 1 1 2 2 2 2 2
0 0 0 0 0 0 0 0 0 1 1 1 1 1 1 1 1 1 1 1 1 1 1 1 1 1 1 1 1 0 1 1 1 1 1 1 1 1 1 1 1 1 1 2 2 2 2 2 2
0 0 0 0 0 0 0 0 0 1 1 1 1 1 1 1 1 1 1 1 1 1 1 1 1 1 1 0 0 0 0 0 0 0 0 0 0 0 1 1 1 1 1 1 2 2 2 2 2
-0 0 0 0 0 0 0 0 0 1 1 1 1 1 1 2 2 2 2 2 1 1 1 1 1 0 0 0 0 0 0 0 0 0 0 0 0 0 0 0 1 1 1 1 1 2 2 2 2
0 0 0 0 0 0 0 0 0 0 1 1 1 1 2 2 2 2 2 2 1 1 1 1 1 0 0 0 0 0 0 0 0 0 0 0 0 0 0 0 0 1 1 1 1 1 1 2 2
0 0 0 0 0 0 0 0 0 0 1 1 1 2 2 2 2 2 2 2 2 1 1 1 1 0 0 0 0 0 0 0 0 0 0 0 0 0 0 0 0 0 0 1 1 1 1 1 1
0 0 0 0 0 0 0 0 0 0 1 1 1 2 2 2 2 2 2 2 1 1 1 1 1 1 1 1 1 1 1 0 0 0 0 0 0 0 0 0 0 0 0 0 1 1 1 1 1
0 0 0 0 0 0 0 0 0 0 0 1 1 1 1 1 1 1 1 1 1 1 1 1 1 1 1 1 1 1 1 1 0 0 0 0 0 0 0 0 0 0 0 0 0 0 1 1 1
0 0 0 0 0 0 0 0 0 0 0 1 1 1 1 1 1 1 1 1 1 1 1 1 1 1 1 1 2 2 1 1 1 1 0 0 0 0 0 0 0 0 0 0 0 0 0 1 1
0 0 0 0 0 0 0 0 0 0 0 0 0 0 0 0 0 0 0 0 0 0 1 1 1 1 2 2 2 2 2 2 1 1 1 0 0 0 0 0 0 0 0 0 0 0 0 0 1
0 0 0 0 0 0 0 0 0 0 0 0 0 0 0 0 0 0 0 0 0 0 0 1 1 1 2 2 2 2 2 2 2 1 1 1 0 0 0 0 0 0 0 0 0 0 0 0 0
0 0 0 0 0 0 0 0 0 0 0 0 0 0 0 0 0 0 0 0 0 0 0 0 1 1 1 1 2 2 2 2 2 2 1 1 1 1 0 0 0 0 0 0 0 0 0 0 0
0 0 0 0 0 0 0 0 0 0 0 0 0 0 0 0 0 0 0 0 0 0 0 0 0 0 0 1 1 1 1 2 2 2 2 1 1 1 1 0 0 0 0 0 0 0 0 0 0
0 0 0 0 0 0 0 0 0 0 0 0 0 0 0 0 0 0 0 0 0 0 0 0 0 0 0 0 0 0 1 1 1 1 1 1 1 1 1 1 0 0 0 0 0 0 0 0 0
0 0 0 0 0 0 0 0 0 0 0 0 0 0 0 0 0 0 0 0 0 0 0 0 0 0 0 0 0 0 0 1 1 1 1 1 1 1 1 1 0 0 0 0 0 0 0 0 0
Wind_Speed
9 8 6 6 8 3 11 9 7 6 6 6 5 4 4 6 6 7 7 14 15 17 19 19 16 15 14 14 14 14 14 14 13 13 12 11 10 9 9 8 7 7 6 6 5 5 5 5 6
5 5 6 7 5 8 10 6 7 8 6 3 4 3 4 7 7 8 10 14 17 17 17 17 18 16 15 14 13 13 13 13 13 12 11 10 10 9 8 7 7 6 6 5 5 4 4 4 5
5 6 7 6 1 6 8 6 6 4 3 2 3 5 5 7 6 6 11 16 16 16 15 17 18 16 15 14 13 13 13 12 12 11 10 10 9 8 8 7 6 5 5 5 4 4 4 4 4
5 7 7 6 5 7 4 4 2 2 3 3 3 6 6 6 4 8 15 17 17 16 15 18 18 16 15 14 13 13 12 12 11 10 10 9 9 8 7 6 6 5 5 5 5 5 5 5 5
6 7 7 4 5 5 3 4 1 1 3 3 3 6 8 6 7 12 16 16 16 15 14 18 17 16 15 14 13 12 12 11 11 11 10 9 9 8 8 7 7 6 6 6 6 6 6 6 6
7 6 6 3 6 4 4 3 1 2 3 2 3 6 8 7 9 13 15 14 15 14 14 16 16 15 15 14 13 13 12 12 11 11 11 10 9 9 8 8 8 8 8 7 7 7 7 7 8
8 6 4 2 4 5 5 4 1 1 1 2 2 5 9 10 10 13 13 12 13 13 13 14 16 14 14 12 12 12 12 11 11 11 11 11 10 10 10 9 9 9 9 9 9 9 9 9 9
6 7 6 5 4 4 4 3 2 2 1 3 2 2 8 13 12 13 13 12 11 12 12 12 13 13 13 13 13 11 11 11 11 11 11 11 11 11 12 11 12 11 11 11 11 11 11 10 10
6 8 8 4 3 3 4 3 1 1 3 4 2 4 9 18 16 14 13 12 11 11 10 11 12 11 10 10 12 13 12 12 11 12 13 11 11 12 11 14 10 11 12 12 12 12 12 11 13
6 9 3 2 3 4 5 4 3 4 6 6 6 8 13 17 16 15 14 14 14 13 12 10 10 10 9 8 8 8 10 10 11 9 10 10 9 7 8 2 7 11 13 14 14 14 13 13 11
6 7 3 2 3 6 6 5 3 6 5 4 5 12 16 17 17 15 14 13 13 13 12 11 10 9 9 6 6 5 5 6 8 10 9 7 7 6 7 6 7 11 13 12 12 13 11 10 8
7 6 6 6 6 7 8 7 6 7 4 5 1 9 17 18 17 16 15 13 12 12 12 11 11 9 8 7 6 6 6 5 6 6 8 7 5 6 7 6 7 7 6 7 8 7 10 10 10
8 7 6 7 9 9 10 10 9 8 5 4 2 11 16 17 16 14 13 12 11 11 11 11 10 9 8 7 6 6 6 6 6 6 6 8 7 8 8 6 7 9 8 8 8 9 9 9 10
5 9 10 9 7 6 8 9 8 6 6 4 5 11 14 15 15 14 13 12 11 11 11 10 10 10 8 7 6 6 7 6 7 6 8 9 8 8 8 8 8 9 9 9 8 9 9 9 9
7 10 9 5 4 3 6 9 4 5 5 5 7 9 11 13 13 13 13 12 11 11 10 9 10 9 9 8 8 7 7 6 6 6 7 8 9 9 8 9 9 9 9 10 9 10 9 9 9
8 10 11 3 2 1 8 8 5 5 2 4 6 8 9 10 11 11 11 10 9 9 9 9 8 8 8 7 6 5 5 6 6 6 6 8 9 9 9 9 9 9 9 9 9 9 9 9 9
9 10 7 4 3 2 5 2 5 5 2 2 4 7 8 9 9 9 9 9 8 8 8 8 8 7 6 5 4 5 4 5 5 5 5 6 8 8 8 8 9 9 9 9 10 9 9 10 11
3 5 5 4 3 3 2 1 3 4 3 2 3 5 6 8 8 7 8 8 8 9 8 8 7 6 5 4 3 3 4 4 4 4 4 6 6 7 8 9 9 10 9 9 9 10 10 10 10
2 4 4 0 2 4 3 3 2 2 1 1 2 3 5 5 6 6 7 8 9 9 9 8 7 6 5 4 3 3 2 2 2 3 3 5 6 7 7 9 8 9 9 10 11 10 12 11 9
4 5 4 3 0 5 5 6 2 0 1 2 1 1 3 5 6 7 7 8 8 8 7 7 7 7 7 5 3 2 2 3 2 3 3 5 6 7 7 8 9 9 8 11 11 11 10 10 8
3 4 5 6 4 6 8 10 5 4 1 0 0 0 2 4 5 6 5 5 5 5 6 5 5 6 6 6 4 3 4 4 4 3 3 4 6 7 7 9 10 9 11 10 10 10 12 11 10
4 2 5 7 10 7 5 9 5 4 3 3 3 2 3 3 2 3 2 1 1 1 2 3 4 5 5 6 6 5 4 4 4 4 4 5 6 7 7 8 9 9 10 10 11 11 10 11 11
5 3 6 8 9 10 6 9 4 4 3 6 6 5 4 4 5 5 6 6 6 5 4 4 4 5 6 6 6 6 7 5 4 4 5 6 6 6 7 8 8 9 9 10 11 11 12 11 12
2 5 7 9 9 8 2 8 2 6 7 7 7 7 7 7 8 9 8 8 7 7 6 5 5 5 6 6 7 8 8 7 7 7 7 6 5 5 6 7 8 9 9 10 11 11 13 12 13
6 9 7 6 5 2 3 7 5 7 8 8 8 9 10 10 11 12 12 12 11 11 10 8 7 6 5 6 7 8 8 8 9 9 7 7 7 6 6 7 8 9 9 10 11 11 12 13 14
8 9 9 8 7 5 4 4 8 8 7 8 10 10 11 12 12 13 13 13 12 13 13 12 11 9 8 7 6 7 8 8 8 7 8 8 7 7 7 8 9 10 11 11 11 11 12 11 12
8 7 8 10 12 11 6 4 9 7 8 9 9 10 11 12 12 13 13 13 13 13 13 13 13 12 11 10 9 7 8 9 10 9 9 8 7 7 8 9 10 10 11 11 12 10 11 11 12
5 7 6 9 9 10 8 7 4 7 5 7 8 9 10 10 11 12 12 12 12 12 12 12 12 11 12 12 11 9 9 9 9 10 10 9 9 9 9 9 10 11 11 11 11 11 11 11 11
4 4 5 8 8 10 13 4 9 7 5 5 7 8 9 10 11 11 10 11 11 11 11 11 11 11 11 11 11 11 11 11 11 10 11 10 10 10 10 10 10 11 11 11 11 11 11 11 11
5 5 5 7 9 9 13 2 9 6 5 6 7 8 9 10 11 11 11 10 10 11 11 11 11 11 11 11 11 12 12 12 12 12 12 12 11 11 11 10 10 10 10 10 11 11 10 10 10
Wind_Direction
193 207 229 239 236 122 76 69 58 59 60 47 42 13 18 21 359 52 105 143 142 143 142 153 159 159 155 150 146 144 144 146 147 148 149 149 149 148 148 147 145 142 136 131 128 126 125 125 125
219 216 235 241 249 96 85 61 58 51 65 64 63 49 48 62 48 91 132 142 147 146 147 157 157 162 159 155 153 151 151 152 154 155 155 156 156 157 157 156 156 156 152 149 149 149 146 144 144
224 236 262 253 55 70 77 63 54 67 72 15 51 42 38 56 86 116 135 148 149 145 148 149 160 164 162 160 160 159 158 158 160 162 164 165 165 166 167 167 170 173 173 173 175 177 174 172 171
233 231 240 247 103 71 45 40 35 96 92 52 60 84 80 56 80 122 140 152 149 149 154 149 165 167 166 166 166 166 166 167 169 171 173 174 175 177 180 182 188 196 199 202 203 204 201 198 200
246 262 246 191 105 84 50 17 359 35 54 67 65 89 94 84 96 129 147 154 154 155 155 151 167 169 171 172 173 174 175 177 179 181 183 186 189 193 198 202 208 216 223 227 226 224 223 218 217
252 254 250 166 110 97 64 39 256 84 89 103 99 102 99 115 130 143 151 159 158 157 159 149 166 173 175 178 180 182 184 186 189 192 194 198 202 207 213 218 222 226 231 236 240 238 236 233 232
283 281 262 180 132 114 48 9 351 15 157 119 113 107 121 141 138 147 152 161 160 161 159 157 168 175 180 184 188 191 195 198 200 203 206 209 213 218 223 228 231 234 234 235 238 241 242 240 238
293 275 229 198 177 112 48 3 20 300 114 113 187 146 139 146 146 148 152 161 166 166 168 167 176 175 182 185 191 200 205 209 212 215 218 221 224 227 228 232 225 232 240 240 240 241 243 243 241
265 256 232 200 193 101 29 344 53 216 151 165 155 46 104 137 148 154 159 165 171 175 178 181 179 178 191 196 183 196 207 214 219 220 220 228 237 234 218 226 215 227 240 244 245 245 246 246 237
248 253 240 32 328 335 342 316 325 219 185 179 153 115 129 145 157 166 171 173 176 181 187 187 194 181 198 205 190 209 213 208 219 233 226 226 240 257 266 213 214 240 246 248 245 246 247 243 244
249 268 320 288 307 314 299 289 267 260 215 188 181 158 157 161 167 176 179 180 178 184 190 190 194 192 205 210 219 218 228 226 226 234 244 252 265 259 255 253 219 225 233 241 231 229 237 239 241
263 264 279 289 305 293 290 288 271 262 303 24 344 163 168 173 177 181 180 182 178 187 191 195 190 198 210 224 227 232 239 237 247 239 243 251 252 260 265 264 270 264 249 247 257 252 249 251 253
250 271 279 279 282 284 276 267 275 272 308 322 196 170 178 181 179 180 178 180 180 188 192 194 194 198 204 216 241 245 253 258 251 259 251 254 256 258 262 264 263 266 267 256 247 255 261 257 253
294 291 279 275 278 261 261 260 252 270 315 278 198 183 185 183 178 174 177 182 185 190 192 191 197 200 206 212 224 244 255 251 264 258 254 255 262 265 267 264 262 263 264 265 265 261 256 252 251
278 273 254 236 269 256 260 241 244 325 297 243 202 185 181 179 178 180 181 185 187 188 189 192 199 201 207 221 228 237 246 253 258 264 262 259 263 266 266 269 267 264 266 264 261 260 257 252 248
242 244 237 159 334 208 250 242 60 351 297 217 188 173 175 177 184 185 184 188 188 186 185 192 200 199 205 219 239 257 267 273 272 274 273 272 276 275 273 271 271 272 269 264 259 255 253 250 249
216 233 236 175 51 334 262 283 48 10 16 141 167 168 174 175 187 185 186 184 186 182 183 187 196 196 199 207 226 251 265 272 279 283 288 294 290 289 284 282 282 279 273 268 265 259 254 254 251
215 233 223 231 46 326 289 5 49 30 24 86 143 158 169 176 176 174 179 173 171 170 177 182 182 185 184 192 208 239 253 263 272 289 301 301 297 298 298 287 286 286 277 270 264 265 260 258 257
281 262 250 284 18 307 303 305 343 14 6 86 138 157 170 166 150 155 158 160 166 168 170 174 174 168 180 187 207 211 221 252 280 291 313 304 304 307 299 295 299 288 284 283 279 272 266 260 255
232 245 239 203 174 297 295 282 267 328 355 343 321 183 168 155 145 143 151 160 163 160 166 169 174 173 185 178 195 221 264 269 293 302 303 297 305 305 296 300 294 291 289 280 277 274 272 270 254
243 289 313 311 300 241 271 254 203 156 156 101 21 97 133 141 143 142 148 150 155 160 173 183 179 184 192 187 199 200 218 241 244 272 281 300 303 298 299 297 294 298 290 285 285 281 271 270 265
283 340 301 291 284 280 277 280 163 148 137 70 59 82 99 99 100 101 86 44 354 289 222 210 208 211 206 208 220 228 252 274 300 299 304 300 288 293 296 293 292 290 289 289 281 276 276 270 266
328 329 284 286 281 276 241 266 134 117 53 41 43 47 50 46 40 32 19 6 341 320 300 268 248 239 232 234 233 240 251 266 278 288 286 287 291 289 291 292 293 289 284 285 284 283 275 270 265
258 246 243 247 254 247 225 281 117 60 14 15 39 46 42 39 39 33 22 17 0 346 325 301 278 266 259 253 253 253 264 272 281 283 290 288 293 293 296 295 292 287 287 285 280 276 270 266 266
250 278 280 259 239 236 123 271 72 57 36 30 41 47 45 43 40 35 28 25 19 12 3 351 336 315 297 277 271 267 267 267 262 270 277 283 293 298 307 302 296 292 289 286 282 278 274 270 265
297 290 283 295 301 302 231 257 96 83 70 62 59 56 51 47 43 40 32 27 24 22 18 14 7 355 343 324 307 292 280 271 269 264 276 281 286 297 307 295 290 290 289 287 283 280 274 267 264
295 279 303 286 277 278 273 133 131 116 87 70 62 55 48 41 37 33 29 24 21 20 20 17 15 10 3 354 339 319 306 293 288 281 263 267 270 280 285 286 288 288 288 287 285 277 275 271 265
316 313 277 274 284 285 275 250 175 127 83 64 50 41 35 30 28 25 22 19 16 14 14 13 11 7 2 358 350 342 331 317 302 287 281 277 275 273 275 278 283 287 289 288 284 280 274 270 265
276 252 287 283 289 292 291 326 60 78 68 44 38 26 18 12 11 10 11 9 5 4 5 3 0 358 356 353 347 341 336 330 321 306 294 283 276 271 268 272 279 285 289 292 290 287 282 274 268
284 310 294 292 292 281 283 3 75 76 65 34 13 6 0 355 353 354 356 354 352 352 351 349 345 344 343 343 339 337 335 333 327 319 308 295 282 272 267 268 273 279 286 291 291 291 289 280 271